| time (UTC) | temp F | wind direction | speed knots | gust knots | rain 1hr in | rain 24hr in | rain mn in | humidity % | barometer mb |
| 20260507151504 | 55 | 11 | 6.1 | 12.2 | 0.13 | 0.98 | 0.98 | 93 | 1011.0 |
| 20260507151004 | 56 | 11 | 5.2 | 13.0 | 0.10 | 0.95 | 0.95 | 93 | 1011.4 |
| 20260507150505 | 56 | 11 | 6.1 | 13.0 | 0.08 | 0.92 | 0.92 | 93 | 1011.4 |
| 20260507150005 | 56 | 11 | 7.0 | 13.9 | 0.06 | 0.90 | 0.90 | 93 | 1011.4 |
| 20260507144505 | 57 | 11 | 5.2 | 13.0 | 0.02 | 0.86 | 0.86 | 92 | 1010.9 |
| 20260507144004 | 57 | 11 | 4.3 | 11.3 | 0.02 | 0.86 | 0.86 | 92 | 1010.9 |
| 20260507143505 | 57 | 11 | 4.3 | 9.6 | 0.01 | 0.85 | 0.85 | 92 | 1011.0 |
| 20260507143005 | 57 | 11 | 4.3 | 11.3 | 0.01 | 0.85 | 0.85 | 92 | 1010.9 |
| 20260507142505 | 58 | 11 | 5.2 | 11.3 | 0.01 | 0.85 | 0.85 | 92 | 1010.8 |
| 20260507142005 | 58 | 12 | 5.2 | 11.3 | 0.01 | 0.85 | 0.85 | 92 | 1010.7 |
| 20260507141004 | 58 | 11 | 5.2 | 13.9 | 0.01 | 0.85 | 0.85 | 94 | 1010.7 |
| 20260507140505 | 59 | 11 | 5.2 | 10.4 | 0.00 | 0.84 | 0.84 | 94 | 1010.5 |
| 20260507140005 | 59 | 11 | 5.2 | 11.3 | 0.01 | 0.84 | 0.84 | 94 | 1010.5 |
| 20260507134505 | 60 | 13 | 1.7 | 8.7 | 0.03 | 0.84 | 0.84 | 95 | 1010.5 |
| 20260507133504 | 60 | 13 | 4.3 | 10.4 | 0.03 | 0.84 | 0.84 | 95 | 1010.4 |
| 20260507132504 | 60 | 12 | 5.2 | 10.4 | 0.04 | 0.84 | 0.84 | 94 | 1010.2 |
| 20260507132004 | 60 | 11 | 5.2 | 10.4 | 0.04 | 0.84 | 0.84 | 94 | 1010.4 |
| 20260507131504 | 60 | 11 | 5.2 | 11.3 | 0.05 | 0.84 | 0.84 | 94 | 1010.2 |
| 20260507130005 | 60 | 12 | 6.1 | 11.3 | 0.07 | 0.83 | 0.83 | 95 | 1010.6 |
| 20260507125504 | 60 | 11 | 6.1 | 13.0 | 0.06 | 0.82 | 0.82 | 94 | 1010.7 |
| 20260507125004 | 60 | 11 | 5.2 | 13.0 | 0.06 | 0.81 | 0.81 | 95 | 1010.8 |
| 20260506203504 | 79 | 16 | 5.2 | 14.8 | 0.00 | 0.00 | 0.00 | 59 | 1009.7 |
| 20260506203004 | 79 | 17 | 5.2 | 13.9 | 0.00 | 0.00 | 0.00 | 58 | 1009.8 |
| 20260506201504 | 79 | 183 | 5.2 | 12.2 | 0.00 | 0.00 | 0.00 | 61 | 1010.2 |
| 20260506201003 | 79 | 196 | 5.2 | 14.8 | 0.00 | 0.00 | 0.00 | 62 | 1010.2 |
| 20260506200004 | 79 | 196 | 5.2 | 13.0 | 0.00 | 0.00 | 0.00 | 63 | 1010.5 |
| 20260506195504 | 79 | 200 | 6.1 | 15.6 | 0.00 | 0.00 | 0.00 | 63 | 1010.6 |
| 20260506195004 | 79 | 201 | 5.2 | 15.6 | 0.00 | 0.00 | 0.00 | 63 | 1010.7 |
| 20260506194504 | 79 | 204 | 4.3 | 12.2 | 0.00 | 0.00 | 0.00 | 63 | 1010.7 |
| 20260506194004 | 79 | 196 | 5.2 | 10.4 | 0.00 | 0.00 | 0.00 | 63 | 1010.9 |
| 20260506192004 | 79 | 194 | 5.2 | 12.2 | 0.00 | 0.00 | 0.00 | 63 | 1011.0 |
| 20260506191504 | 78 | 193 | 5.2 | 11.3 | 0.00 | 0.00 | 0.00 | 64 | 1011.0 |
| 20260506191004 | 78 | 192 | 4.3 | 11.3 | 0.00 | 0.00 | 0.00 | 64 | 1011.1 |
| 20260506190504 | 78 | 192 | 5.2 | 12.2 | 0.00 | 0.00 | 0.00 | 65 | 1011.0 |
| 20260506190006 | 78 | 189 | 5.2 | 13.0 | 0.00 | 0.00 | 0.00 | 64 | 1011.1 |
| 20260506185504 | 78 | 188 | 5.2 | 16.5 | 0.00 | 0.00 | 0.00 | 64 | 1011.2 |
| 20260506185004 | 77 | 192 | 6.1 | 16.5 | 0.00 | 0.00 | 0.00 | 64 | 1011.3 |
| 20260506184504 | 77 | 187 | 6.1 | 16.5 | 0.00 | 0.00 | 0.00 | 64 | 1011.3 |
| 20260506184004 | 77 | 181 | 5.2 | 14.8 | 0.00 | 0.00 | 0.00 | 64 | 1011.2 |
| 20260506183504 | 77 | 181 | 5.2 | 13.0 | 0.00 | 0.00 | 0.00 | 64 | 1011.2 |
| 20260506182504 | 77 | 183 | 5.2 | 12.2 | 0.00 | 0.00 | 0.00 | 64 | 1011.4 |
| 20260506181504 | 77 | 187 | 6.1 | 16.5 | 0.00 | 0.00 | 0.00 | 64 | 1011.5 |
| 20260506181004 | 77 | 188 | 6.1 | 16.5 | 0.00 | 0.00 | 0.00 | 64 | 1011.8 |
| 20260506180504 | 77 | 186 | 5.2 | 15.6 | 0.00 | 0.00 | 0.00 | 64 | 1011.9 |
| 20260506180005 | 77 | 186 | 5.2 | 24.3 | 0.00 | 0.00 | 0.00 | 64 | 1012.0 |
| 20260506175504 | 77 | 188 | 6.1 | 24.3 | 0.00 | 0.00 | 0.00 | 63 | 1012.0 |
| 20260506175004 | 77 | 189 | 5.2 | 15.6 | 0.00 | 0.00 | 0.00 | 64 | 1012.1 |
| 20260506174505 | 77 | 187 | 6.1 | 15.6 | 0.00 | 0.00 | 0.00 | 64 | 1012.1 |
| 20260506174004 | 76 | 190 | 5.2 | 13.0 | 0.00 | 0.00 | 0.00 | 64 | 1012.4 |
| 20260506173504 | 76 | 189 | 5.2 | 11.3 | 0.00 | 0.00 | 0.00 | 65 | 1012.5 |
| 20260506173004 | 76 | 174 | 5.2 | 15.6 | 0.00 | 0.00 | 0.00 | 65 | 1012.5 |
| 20260506172503 | 76 | 38 | 5.2 | 15.6 | 0.00 | 0.00 | 0.00 | 65 | 1012.4 |
| 20260506172004 | 76 | 19 | 4.3 | 13.0 | 0.00 | 0.00 | 0.00 | 66 | 1012.6 |
| 20260506171504 | 75 | 18 | 4.3 | 13.0 | 0.00 | 0.00 | 0.00 | 66 | 1012.8 |
| 20260506171004 | 75 | 17 | 3.5 | 11.3 | 0.00 | 0.00 | 0.00 | 67 | 1012.7 |
| 20260506170503 | 75 | 16 | 4.3 | 10.4 | 0.00 | 0.00 | 0.00 | 68 | 1012.7 |
| 20260506170004 | 75 | 16 | 4.3 | 10.4 | 0.00 | 0.00 | 0.00 | 68 | 1012.7 |
| 20260506165504 | 75 | 15 | 5.2 | 10.4 | 0.00 | 0.00 | 0.00 | 68 | 1012.8 |
| 20260506165005 | 74 | 16 | 5.2 | 13.0 | 0.00 | 0.00 | 0.00 | 68 | 1012.8 |
| 20260506164504 | 74 | 17 | 4.3 | 13.0 | 0.00 | 0.00 | 0.00 | 69 | 1012.9 |
| 20260506164004 | 74 | 17 | 4.3 | 13.9 | 0.00 | 0.00 | 0.00 | 70 | 1012.8 |
| 20260506163504 | 74 | 15 | 4.3 | 13.9 | 0.00 | 0.00 | 0.00 | 70 | 1012.8 |
| 20260506163005 | 73 | 14 | 4.3 | 12.2 | 0.00 | 0.00 | 0.00 | 70 | 1012.9 |
| 20260506162504 | 73 | 15 | 4.3 | 10.4 | 0.00 | 0.00 | 0.00 | 70 | 1013.1 |
| 20260506161504 | 73 | 15 | 3.5 | 10.4 | 0.00 | 0.00 | 0.00 | 71 | 1013.3 |
| 20260506161003 | 73 | 14 | 4.3 | 12.2 | 0.00 | 0.00 | 0.00 | 71 | 1013.3 |
| 20260506160504 | 73 | 14 | 5.2 | 12.2 | 0.00 | 0.00 | 0.00 | 71 | 1013.4 |
| 20260506160004 | 73 | 15 | 5.2 | 12.2 | 0.00 | 0.00 | 0.00 | 71 | 1013.4 |
| 20260506155504 | 73 | 15 | 5.2 | 14.8 | 0.00 | 0.00 | 0.00 | 71 | 1013.5 |
| 20260506154504 | 73 | 15 | 6.1 | 16.5 | 0.00 | 0.00 | 0.00 | 70 | 1013.8 |
| 20260506154004 | 73 | 14 | 5.2 | 16.5 | 0.00 | 0.00 | 0.00 | 70 | 1014.0 |
| 20260506153504 | 73 | 14 | 5.2 | 15.6 | 0.00 | 0.00 | 0.00 | 69 | 1014.1 |
| 20260506153004 | 73 | 14 | 6.1 | 14.8 | 0.00 | 0.00 | 0.00 | 69 | 1014.1 |